Cook, MN

5:06 PM CDT on April 23, 2017 (GMT -0500)
Cook Municipal

Weather History for KCQM - October, 2012

Change the Weather History Date:

Sunday, October 14, 2012

  Actual Average Record
Temperature  
Mean Temperature 40 °F -  
Max Temperature 53 °F 50 °F 64 °F (2005)
Min Temperature 26 °F 32 °F 24 °F (2002)
Degree Days  
Heating Degree Days 26    
Moisture  
Dew Point 32 °F    
Average Humidity 77    
Maximum Humidity 100    
Minimum Humidity 41    
Precipitation  
Precipitation 0.00 in - - ()
Sea Level Pressure  
Sea Level Pressure 29.83 in    
Wind  
Wind Speed 1 mph (North)    
Max Wind Speed 8 mph    
Max Gust Speed -    
Visibility 6 miles    
Events Fog    
Averages and records for this station are not official NWS values.
T = Trace of Precipitation, MM = Missing Value Source: NWS Daily Summary

Daily Weather History Graph

Daily Weather History Graph

Search for Another Location

Airport or City:

Trip Planner

Search our weather history database for the weather conditions in past years. The results will help you decide how hot, cold, wet, or windy it might be!

Date:

Astronomy

Oct. 14, 2012 Rise Set
Actual Time 7:29 AM CDT 6:23 PM CDT
Civil Twilight 6:57 AM CDT 6:54 PM CDT
Nautical Twilight 6:22 AM CDT 7:30 PM CDT
Astronomical Twilight 5:46 AM CDT 8:06 PM CDT
Moon 6:27 AM CDT (10/14) 5:42 PM CDT (10/14)
Length of Visible Light 11h 56m
Length of Day
10h 54m
Waning Crescent, 1% of the Moon is Illuminated
Oct 14
Waning Crescent
Oct 15
New
Oct 21
First Quarter
Oct 29
Full
Nov 6
Last Quarter

Hourly Weather History & Observations

Time (CDT) Temp. Windchill Dew Point Humidity Pressure Visibility Wind Dir Wind Speed Gust Speed Precip Events Conditions
12:17 AM 28.4 °F - 28.4 °F 100% 29.81 in 5.0 mi Calm Calm - N/A   Overcast
12:37 AM 28.4 °F - 28.4 °F 100% 29.82 in 0.2 mi Calm Calm - N/A Fog Light Freezing Fog
12:56 AM 28.4 °F - 28.4 °F 100% 29.80 in 0.2 mi Calm Calm - N/A Fog Light Freezing Fog
1:17 AM 28.4 °F - 28.4 °F 100% 29.81 in 0.5 mi Calm Calm - N/A Fog Light Freezing Fog
1:37 AM 28.4 °F - 28.4 °F 100% 29.81 in 0.2 mi Calm Calm - N/A Fog Light Freezing Fog
1:56 AM 28.4 °F - 26.6 °F 93% 29.81 in 0.2 mi Calm Calm - N/A Fog Light Freezing Fog
2:17 AM 28.4 °F - 26.6 °F 93% 29.80 in 0.2 mi Calm Calm - N/A Fog Light Freezing Fog
2:36 AM 28.4 °F - 26.6 °F 93% 29.81 in 0.2 mi Calm Calm - N/A Fog Light Freezing Fog
2:56 AM 26.6 °F - 26.6 °F 100% 29.81 in 0.2 mi Calm Calm - N/A Fog Light Freezing Fog
3:17 AM 26.6 °F - 26.6 °F 100% 29.81 in 0.2 mi Calm Calm - N/A Fog Light Freezing Fog
3:36 AM 28.4 °F - 26.6 °F 93% 29.82 in 0.2 mi Calm Calm - N/A Fog Light Freezing Fog
3:56 AM 28.4 °F - 28.4 °F 100% 29.82 in 0.2 mi Calm Calm - N/A Fog Light Freezing Fog
4:17 AM 28.4 °F - 26.6 °F 93% 29.83 in 0.2 mi Calm Calm - N/A Fog Light Freezing Fog
4:36 AM 26.6 °F - 26.6 °F 100% 29.82 in 0.2 mi Calm Calm - N/A Fog Light Freezing Fog
4:56 AM 28.4 °F - 26.6 °F 93% 29.83 in 0.2 mi Calm Calm - N/A Fog Light Freezing Fog
5:17 AM 28.4 °F - 26.6 °F 93% 29.83 in 0.2 mi Calm Calm - N/A Fog Light Freezing Fog
5:36 AM 28.4 °F - 28.4 °F 100% 29.84 in 0.5 mi Calm Calm - N/A Fog Light Freezing Fog
5:56 AM 28.4 °F - 28.4 °F 100% 29.84 in 0.5 mi Calm Calm - N/A Fog Light Freezing Fog
6:17 AM 28.4 °F - 28.4 °F 100% 29.84 in 0.5 mi Calm Calm - N/A Fog Light Freezing Fog
6:36 AM 28.4 °F - 28.4 °F 100% 29.84 in 0.8 mi Calm Calm - N/A   Overcast
6:57 AM 28.4 °F - 28.4 °F 100% 29.84 in 2.5 mi Calm Calm - N/A   Overcast
7:17 AM 28.4 °F - 28.4 °F 100% 29.85 in 5.0 mi Calm Calm - N/A   Overcast
7:36 AM 28.4 °F - 28.4 °F 100% 29.85 in 5.0 mi Calm Calm - N/A   Overcast
7:57 AM 28.4 °F - 28.4 °F 100% 29.85 in 3.0 mi Calm Calm - N/A   Overcast
8:17 AM 28.4 °F - 28.4 °F 100% 29.86 in 3.0 mi Calm Calm - N/A   Overcast
8:36 AM 30.2 °F - 28.4 °F 93% 29.85 in 3.0 mi Calm Calm - N/A   Overcast
8:57 AM 30.2 °F - 30.2 °F 100% 29.85 in 5.0 mi Calm Calm - N/A   Overcast
9:17 AM 30.2 °F - 30.2 °F 100% 29.85 in 5.0 mi Calm Calm - N/A   Mostly Cloudy
9:36 AM 32.0 °F - 32.0 °F 100% 29.86 in 5.0 mi Calm Calm - N/A   Clear
9:57 AM 33.8 °F - 33.8 °F 100% 29.85 in 7.0 mi Calm Calm - N/A   Clear
10:17 AM 35.6 °F - 35.6 °F 100% 29.85 in 7.0 mi Calm Calm - N/A   Clear
10:36 AM 37.4 °F - 37.4 °F 100% 29.85 in 10.0 mi Calm Calm - N/A   Clear
10:57 AM 39.2 °F - 39.2 °F 100% 29.85 in 10.0 mi Calm Calm - N/A   Clear
11:17 AM 42.8 °F - 42.8 °F 100% 29.84 in 10.0 mi Calm Calm - N/A   Clear
11:36 AM 46.4 °F 42.9 °F 39.2 °F 76% 29.84 in 10.0 mi NNE 6.9 mph - N/A   Clear
11:57 AM 48.2 °F - 37.4 °F 66% 29.84 in 10.0 mi NNE 4.6 mph - N/A   Clear
12:17 PM 50.0 °F - 35.6 °F 58% 29.83 in 10.0 mi North 4.6 mph - N/A   Clear
12:36 PM 50.0 °F - 33.8 °F 54% 29.83 in 10.0 mi North 5.8 mph - N/A   Clear
12:57 PM 51.8 °F - 33.8 °F 50% 29.82 in 10.0 mi North 5.8 mph - N/A   Clear
1:16 PM 51.8 °F - 33.8 °F 50% 29.83 in 10.0 mi North 3.5 mph - N/A   Clear
1:36 PM 51.8 °F - 33.8 °F 50% 29.82 in 10.0 mi NNE 5.8 mph - N/A   Clear
1:57 PM 51.8 °F - 33.8 °F 50% 29.82 in 10.0 mi Calm Calm - N/A   Clear
2:16 PM 53.6 °F - 32.0 °F 44% 29.81 in 10.0 mi North 4.6 mph - N/A   Clear
2:37 PM 53.6 °F - 30.2 °F 41% 29.81 in 10.0 mi NNW 5.8 mph - N/A   Clear
2:56 PM 53.6 °F - 30.2 °F 41% 29.81 in 7.0 mi NNE 8.1 mph - N/A   Clear
3:17 PM 53.6 °F - 30.2 °F 41% 29.80 in 7.0 mi NNE 6.9 mph - N/A   Clear
3:36 PM 53.6 °F - 32.0 °F 44% 29.80 in 10.0 mi North 5.8 mph - N/A   Scattered Clouds
3:56 PM 53.6 °F - 32.0 °F 44% 29.80 in 10.0 mi North 4.6 mph - N/A   Overcast
4:17 PM 53.6 °F - 33.8 °F 47% 29.80 in 10.0 mi North 6.9 mph - N/A   Overcast
4:36 PM 53.6 °F - 33.8 °F 47% 29.81 in 10.0 mi North 4.6 mph - N/A   Overcast
4:56 PM 53.6 °F - 33.8 °F 47% 29.81 in 10.0 mi North 5.8 mph - N/A   Mostly Cloudy
5:17 PM 51.8 °F - 33.8 °F 50% 29.81 in 10.0 mi NNW 4.6 mph - N/A   Scattered Clouds
5:36 PM 51.8 °F - 33.8 °F 50% 29.82 in 10.0 mi Calm Calm - N/A   Scattered Clouds
5:56 PM 51.8 °F - 33.8 °F 50% 29.82 in 10.0 mi North 5.8 mph - N/A   Scattered Clouds
6:17 PM 51.8 °F - 33.8 °F 50% 29.82 in 10.0 mi Calm Calm - N/A   Mostly Cloudy
6:36 PM 50.0 °F - 33.8 °F 54% 29.83 in 10.0 mi Calm Calm - N/A   Overcast
6:56 PM 50.0 °F - 33.8 °F 54% 29.83 in 10.0 mi Calm Calm - N/A   Overcast
7:17 PM 48.2 °F - 33.8 °F 58% 29.83 in 10.0 mi Calm Calm - N/A   Overcast
7:36 PM 48.2 °F - 33.8 °F 58% 29.84 in 10.0 mi Calm Calm - N/A   Overcast
7:57 PM 48.2 °F - 33.8 °F 58% 29.84 in 10.0 mi Calm Calm - N/A   Overcast
8:16 PM 48.2 °F - 33.8 °F 58% 29.84 in 10.0 mi Calm Calm - N/A   Mostly Cloudy
8:37 PM 46.4 °F - 35.6 °F 66% 29.84 in 10.0 mi Calm Calm - N/A   Mostly Cloudy
8:57 PM 46.4 °F - 35.6 °F 66% 29.84 in 10.0 mi Calm Calm - N/A   Mostly Cloudy
9:16 PM 46.4 °F - 35.6 °F 66% 29.84 in 10.0 mi Calm Calm - N/A   Mostly Cloudy
9:37 PM 46.4 °F - 35.6 °F 66% 29.84 in 10.0 mi Calm Calm - N/A   Overcast
9:56 PM 46.4 °F - 37.4 °F 71% 29.84 in 10.0 mi Calm Calm - N/A   Overcast
10:17 PM 44.6 °F - 37.4 °F 76% 29.84 in 10.0 mi Calm Calm - N/A   Scattered Clouds
10:37 PM 44.6 °F - 37.4 °F 76% 29.84 in 10.0 mi Calm Calm - N/A   Mostly Cloudy
10:56 PM 44.6 °F - 37.4 °F 76% 29.85 in 10.0 mi Calm Calm - N/A   Overcast
11:17 PM 44.6 °F - 37.4 °F 76% 29.85 in 10.0 mi Calm Calm - N/A   Mostly Cloudy
11:37 PM 42.8 °F - 37.4 °F 81% 29.85 in 10.0 mi Calm Calm - N/A   Mostly Cloudy